Date,TemperatureHighF,TemperatureAvgF,TemperatureLowF,DewpointHighF,DewpointAvgF,DewpointLowF,HumidityHigh,HumidityAvg,HumidityLow,PressureMaxIn,PressureMinIn,WindSpeedMaxMPH,WindSpeedAvgMPH,GustSpeedMaxMPH,PrecipitationSumIn
2013-1-1,36,28,14,-100,-100,-100,0,0,100,29.99,29.76,17,2,17,0.00
2013-1-2,26,14,5,-100,-100,-100,0,0,100,30.24,29.96,11,1,12,0.00
2013-1-3,21,8,-4,-100,-100,-100,0,0,100,30.26,29.97,7,1,10,0.00
2013-1-4,42,31,20,-100,-100,-100,0,0,100,29.98,29.84,14,1,14,0.08
2013-1-5,39,33,23,-100,-100,-100,0,0,100,30.24,29.92,20,2,20,0.06
2013-1-6,42,34,24,-100,-100,-100,0,0,100,30.18,29.90,16,2,16,0.08
2013-1-7,37,29,18,-100,-100,-100,0,0,100,30.38,29.98,16,1,16,0.01
2013-1-8,42,27,13,-100,-100,-100,0,0,100,30.37,30.26,18,1,18,0.00
2013-1-9,42,27,19,-100,-100,-100,0,0,100,30.36,30.02,19,2,22,0.00
2013-1-10,42,35,28,-100,-100,-100,0,0,100,30.55,30.47,14,1,14,0.01
2013-1-11,39,32,25,-100,-100,-100,0,0,100,30.54,30.08,19,2,19,0.12
2013-1-12,46,41,37,-100,-100,-100,0,0,100,30.15,30.06,17,2,17,0.01
2013-1-13,50,44,39,-100,-100,-100,0,0,100,30.13,29.91,22,5,25,0.01
2013-1-14,48,42,34,-100,-100,-100,0,0,100,30.32,29.80,22,3,22,0.01
2013-1-15,38,33,30,-100,-100,-100,0,0,100,30.35,30.23,11,0,11,0.01
2013-1-16,32,30,28,-100,-100,-100,0,0,100,30.23,29.81,9,1,10,0.02
2013-1-17,38,31,23,-100,-100,-100,0,0,100,30.17,29.84,17,2,17,0.19
2013-1-18,25,20,12,-100,-100,-100,0,0,100,30.41,30.09,20,2,22,0.00
2013-1-19,44,36,25,-100,-100,-100,0,0,100,30.25,29.76,33,9,34,0.02
2013-1-20,46,37,22,-100,-100,-100,0,0,100,30.02,29.53,30,6,30,0.00
2013-1-21,27,22,18,-100,-100,-100,0,0,100,30.07,29.80,16,2,17,0.00
2013-1-22,21,16,9,-100,-100,-100,0,0,100,30.12,29.78,22,1,22,0.00
2013-1-23,11,7,1,-100,-100,-100,0,0,100,30.22,30.11,20,1,20,0.00
2013-1-24,17,7,-2,-100,-100,-100,0,0,100,30.38,30.17,20,2,20,0.00
2013-1-25,18,11,5,-100,-100,-100,0,0,100,30.42,30.08,18,2,18,0.00
2013-1-26,22,14,6,-100,-100,-100,0,0,100,30.34,30.07,14,1,14,0.01
2013-1-27,29,17,6,-100,-100,-100,0,0,100,30.51,30.33,10,1,11,0.01
2013-1-28,32,25,15,-100,-100,-100,0,0,100,30.48,29.94,18,2,18,0.00
2013-1-29,33,27,26,-100,-100,-100,0,0,100,30.14,29.97,4,0,4,0.00
2013-1-30,57,56,55,-100,-100,-100,0,0,100,29.46,29.29,21,5,21,0.23
2013-1-31,55,40,26,-100,-100,-100,0,0,100,29.64,28.86,27,3,27,0.62
2013-2-1,28,24,19,-100,-100,-100,0,0,100,30.16,29.64,23,2,23,0.00
2013-2-2,28,21,11,-100,-100,-100,0,0,100,30.22,30.00,22,3,24,0.00
2013-2-3,30,22,15,-100,-100,-100,0,0,100,30.03,29.76,11,0,11,0.00
2013-2-4,26,21,15,-100,-100,-100,0,0,100,29.95,29.77,16,1,16,0.00
2013-2-5,30,23,17,-100,-100,-100,0,0,100,30.01,29.88,12,1,12,0.00
2013-2-6,34,27,19,-100,-100,-100,0,0,100,30.37,29.88,21,2,21,0.00
2013-2-7,26,20,13,-100,-100,-100,0,0,100,30.54,30.36,12,1,12,0.00
2013-2-8,28,22,20,-100,-100,-100,0,0,100,30.37,30.15,15,2,15,0.00
2013-2-11,43,39,35,-100,-100,-100,0,0,100,29.97,29.62,31,6,31,0.06
2013-2-12,38,37,34,-100,-100,-100,0,0,100,29.93,29.68,13,1,14,0.00
2013-2-13,40,34,31,-100,-100,-100,0,0,100,29.89,29.71,10,0,10,0.00
2013-2-14,40,32,24,-100,-100,-100,0,0,100,29.94,29.71,11,1,11,0.00
2013-2-15,44,39,32,-100,-100,-100,0,0,100,30.01,29.90,13,2,14,0.00
2013-2-16,33,29,24,-100,-100,-100,0,0,100,30.01,29.83,18,2,18,0.02
2013-2-17,25,20,14,-100,-100,-100,0,0,100,29.95,29.66,25,5,28,0.00
2013-2-18,28,18,9,-100,-100,-100,0,0,100,30.21,29.95,23,3,23,0.00
2013-2-20,29,26,25,-100,-100,-100,0,0,100,29.90,29.76,17,2,19,0.00
2013-2-21,26,22,19,-100,-100,-100,0,0,100,30.32,29.88,19,3,21,0.00